Weather History for Stevensville, MD

Change the Weather History Date:

Sunday, December 18, 2011

  Actual Average (KESN) Record (KESN)
Temperature  
Mean Temperature 34 °F -  
Max Temperature 39 °F 44 °F 69 °F (2006)
Min Temperature 30 °F 27 °F 13 °F (1960)
Degree Days  
Heating Degree Days 30    
Moisture  
Dew Point 28 °F    
Average Humidity 76    
Maximum Humidity 87    
Minimum Humidity 56    
Precipitation  
Precipitation 0.00 in - - ()
Sea Level Pressure  
Sea Level Pressure 30.28 in    
Wind  
Wind Speed - (North)    
Max Wind Speed -    
Max Gust Speed -    
Visibility 10 miles    
Events      
Averages and records for this station are not official NWS values.
T = Trace of Precipitation, MM = Missing Value Source: NWS Daily Summary

Daily Weather History Graph

Daily Weather History Graph

Search for Another Location

Airport:

Trip Planner

Search our weather history database for the weather conditions in past years. The results will help you decide how hot, cold, wet, or windy it might be!

Date:

Astronomy

Dec. 18, 2011 Rise Set
Actual Time 7:18 AM EST 4:44 PM EST
Civil Twilight 6:48 AM EST 5:15 PM EST
Nautical Twilight 6:15 AM EST 5:48 PM EST
Astronomical Twilight 5:42 AM EST 6:21 PM EST
Moon 12:19 AM EST (12/18) 12:07 PM EST (12/18)
Length of Visible Light 10h 26m
Length of Day
9h 26m
Last Quarter, 42% of the Moon is Illuminated
Dec 18
Last Quarter
Dec 24
New
Jan 1
First Quarter
Jan 9
Full
Jan 16
Last Quarter

Hourly Weather History & Observations

Time (EST) Temp. Dew Point Humidity Pressure Visibility Wind Dir Wind Speed Gust Speed Precip Events Conditions
12:02 AM 33.8 °F 30.2 °F 87% 30.20 in 10.0 mi North - - N/A   Mostly Cloudy
12:21 AM 33.8 °F 30.2 °F 87% 30.20 in 10.0 mi North - - N/A   Overcast
12:40 AM 33.8 °F 30.2 °F 87% 30.20 in 10.0 mi North - - N/A   Overcast
1:00 AM 33.8 °F 30.2 °F 87% 30.20 in 10.0 mi North - - N/A   Overcast
1:38 AM 33.8 °F 30.2 °F 87% 30.20 in 10.0 mi North - - N/A   Overcast
1:58 AM 33.8 °F 30.2 °F 87% 30.21 in 10.0 mi North - - N/A   Overcast
2:17 AM 33.8 °F 28.4 °F 81% 30.22 in 10.0 mi North - - N/A   Overcast
2:36 AM 33.8 °F 28.4 °F 81% 30.22 in 10.0 mi North - - N/A   Overcast
2:56 AM 33.8 °F 28.4 °F 81% 30.22 in 10.0 mi North - - N/A   Overcast
3:34 AM 33.8 °F 26.6 °F 75% 30.22 in 10.0 mi North - - N/A   Overcast
3:54 AM 33.8 °F 26.6 °F 75% 30.22 in 10.0 mi North - - N/A   Overcast
4:13 AM 33.8 °F 26.6 °F 75% 30.21 in 10.0 mi North - - N/A   Overcast
4:32 AM 33.8 °F 26.6 °F 75% 30.21 in 10.0 mi North - - N/A   Overcast
4:52 AM 33.8 °F 26.6 °F 75% 30.21 in 10.0 mi North - - N/A   Overcast
5:11 AM 33.8 °F 26.6 °F 75% 30.21 in 10.0 mi North - - N/A   Overcast
5:30 AM 33.8 °F 26.6 °F 75% 30.21 in 10.0 mi North - - N/A   Overcast
5:50 AM 33.8 °F 26.6 °F 75% 30.22 in 10.0 mi North - - N/A   Scattered Clouds
6:09 AM 33.8 °F 26.6 °F 75% 30.22 in 10.0 mi North - - N/A   Clear
6:28 AM 33.8 °F 26.6 °F 75% 30.23 in 10.0 mi North - - N/A   Clear
7:45 AM 33.8 °F 28.4 °F 81% 30.25 in 10.0 mi North - - N/A   Mostly Cloudy
8:04 AM 33.8 °F 28.4 °F 81% 30.26 in 10.0 mi North - - N/A   Overcast
8:43 AM 33.8 °F 28.4 °F 81% 30.27 in 10.0 mi North - - N/A   Overcast
9:02 AM 35.6 °F 28.4 °F 75% 30.27 in 10.0 mi North - - N/A   Overcast
9:22 AM 35.6 °F 30.2 °F 81% 30.28 in 10.0 mi North - - N/A   Overcast
9:41 AM 35.6 °F 28.4 °F 75% 30.28 in 10.0 mi North - - N/A   Overcast
10:00 AM 35.6 °F 30.2 °F 81% 30.28 in 10.0 mi North - - N/A   Mostly Cloudy
10:19 AM 37.4 °F 30.2 °F 75% 30.29 in 10.0 mi North - - N/A   Scattered Clouds
10:39 AM 35.6 °F 28.4 °F 75% 30.29 in 10.0 mi North - - N/A   Mostly Cloudy
10:58 AM 35.6 °F 28.4 °F 75% 30.29 in 10.0 mi North - - N/A   Overcast
11:17 AM 35.6 °F 28.4 °F 75% 30.30 in 10.0 mi North - - N/A   Overcast
11:36 AM 35.6 °F 28.4 °F 75% 30.29 in 10.0 mi North - - N/A   Overcast
11:56 AM 37.4 °F 28.4 °F 70% 30.28 in 10.0 mi North - - N/A   Mostly Cloudy
12:34 PM 37.4 °F 28.4 °F 70% 30.28 in 10.0 mi North - - N/A   Scattered Clouds
12:54 PM 39.2 °F 28.4 °F 65% 30.28 in 10.0 mi North - - N/A   Mostly Cloudy
1:13 PM 37.4 °F 28.4 °F 70% 30.28 in 10.0 mi North - - N/A   Mostly Cloudy
1:32 PM 37.4 °F 28.4 °F 70% 30.27 in 10.0 mi North - - N/A   Mostly Cloudy
1:51 PM 37.4 °F 28.4 °F 70% 30.27 in 10.0 mi North - - N/A   Scattered Clouds
2:11 PM 39.2 °F 28.4 °F 65% 30.26 in 10.0 mi North - - N/A   Scattered Clouds
2:30 PM 39.2 °F 26.6 °F 61% 30.27 in 10.0 mi North - - N/A   Scattered Clouds
2:49 PM 37.4 °F 26.6 °F 65% 30.27 in 10.0 mi North - - N/A   Scattered Clouds
3:08 PM 37.4 °F 26.6 °F 65% 30.27 in 10.0 mi North - - N/A   Scattered Clouds
3:47 PM 37.4 °F 26.6 °F 65% 30.27 in 10.0 mi North - - N/A   Clear
4:06 PM 39.2 °F 24.8 °F 56% 30.28 in 10.0 mi North - - N/A   Clear
4:26 PM 37.4 °F 24.8 °F 60% 30.28 in 10.0 mi North - - N/A   Clear
4:45 PM 35.6 °F 24.8 °F 65% 30.30 in 10.0 mi North - - N/A   Clear
5:04 PM 35.6 °F 23.0 °F 60% 30.30 in 10.0 mi North - - N/A   Clear
5:43 PM 35.6 °F 24.8 °F 65% 30.32 in 10.0 mi North - - N/A   Clear
6:02 PM 35.6 °F 24.8 °F 65% 30.33 in 10.0 mi North - - N/A   Clear
6:21 PM 35.6 °F 24.8 °F 65% 30.33 in 10.0 mi North - - N/A   Clear
6:40 PM 33.8 °F 24.8 °F 70% 30.33 in 10.0 mi North - - N/A   Clear
7:00 PM 33.8 °F 24.8 °F 70% 30.34 in 10.0 mi North - - N/A   Clear
7:19 PM 32.0 °F 26.6 °F 80% 30.34 in 10.0 mi North - - N/A   Clear
7:38 PM 32.0 °F 26.6 °F 80% 30.35 in 10.0 mi North - - N/A   Clear
7:58 PM 32.0 °F 26.6 °F 80% 30.36 in 10.0 mi North - - N/A   Clear
8:36 PM 32.0 °F 28.4 °F 87% 30.35 in 10.0 mi North - - N/A   Clear
8:55 PM 32.0 °F 28.4 °F 87% 30.35 in 10.0 mi North - - N/A   Clear
9:15 PM 32.0 °F 28.4 °F 87% 30.35 in 10.0 mi North - - N/A   Clear
9:34 PM 30.2 °F 26.6 °F 86% 30.35 in 10.0 mi North - - N/A   Clear
9:53 PM 32.0 °F 28.4 °F 87% 30.34 in 10.0 mi North - - N/A   Clear
10:13 PM 32.0 °F 28.4 °F 87% 30.34 in 10.0 mi North - - N/A   Clear
10:32 PM 32.0 °F 28.4 °F 87% 30.34 in 10.0 mi North - - N/A   Clear
10:51 PM 32.0 °F 28.4 °F 87% 30.33 in 10.0 mi North - - N/A   Clear
11:30 PM 32.0 °F 28.4 °F 87% 30.33 in 10.0 mi North - - N/A   Clear
11:49 PM 32.0 °F 28.4 °F 87% 30.33 in 10.0 mi North - - N/A   Clear